Regional Weather Roundup
Issued by NWS State College, PA

Home | Current Version | Previous Version | Graphics & Text | Print | Product List | Glossary On
Versions: 1 2 3 4 5 6 7 8 9 10 11 12 13 14 15 16 17 18 19 20 21 22 23 24 25 26 27 28 29 30 31 32 33 34 35 36 37 38 39 40 41 42 43 44 45 46 47 48 49 50
000
ASUS41 KCTP 091003
RWRCTP

REGIONAL WEATHER ROUNDUP
NATIONAL WEATHER SERVICE STATE COLLEGE PA
500 AM EST TUE FEB 09 2016

Note: "fair" indicates few or no clouds below 12,000 feet with no
significant weather and/or obstructions to visibility.

* = STATION THAT DOES NOT REPORT PRECIPITATION /E.G. RAIN...SNOW...ETC/
    THUNDER OR FOG.

PAZ002>004-007>009-013>016-020>023-029>032-091100-
WESTERN PENNSYLVANIA

CITY           SKY/WX    TMP DP  RH WIND       PRES   REMARKS
ERIE           CLOUDY    34  30  85 SW6       29.51F
MEADVILLE      CLOUDY    32  28  85 W7        29.49S
FRANKLIN*      CLOUDY    30  27  86 SW3       29.51S
NEW CASTLE     CLOUDY    31  29  92 CALM      29.53S FOG
BEAVER COUNTY  NOT AVBL
BUTLER*        CLOUDY    30  28  93 S3        29.55R
PITTSBURGH INT LGT SNOW  32  30  92 S3        29.51S FOG
PITTSBURGH     CLOUDY    32  30  92 S3        29.51S FOG
INDIANA*       CLOUDY    32  32 100 CALM      29.54S
LATROBE        MIX PCPN  32  32 100 CALM      29.53S
WASHINGTON CO* MOCLDY    28  27  93 CALM      29.52S
$$

PAZ004>006-010>012-017>019-024>028-033>037-041-042-045-046-049>053-091100-
CENTRAL PENNSYLVANIA

CITY           SKY/WX    TMP DP  RH WIND       PRES   REMARKS
BRADFORD       LGT SNOW  30  28  92 CALM      29.46S FOG
DUBOIS         CLOUDY    30  27  88 SW5       29.48S
CLEARFIELD     CLOUDY    31  28  89 CALM      29.50F FOG
JOHNSTOWN      CLOUDY    29  24  82 CALM      29.46S
ALTOONA        CLOUDY    32  28  85 CALM      29.50F FOG
STATE COLLEGE  CLOUDY    33  31  94 SE5       29.51S
WILLIAMSPORT   CLOUDY    32  27  81 E13       29.57S
SELINSGROVE    CLOUDY    32  27  81 E5        29.59S
FT INDIANTOWN  NOT AVBL
CAPITAL CITY   LGT SNOW  32  28  85 E9        29.59S FOG
HARRISBURG     LGT SNOW  32  28  85 E9        29.58F
YORK           LGT SNOW  32  30  92 E9        29.57S FOG
$$

PAZ038>040-043-044-047-048-054-055-060>062-067>071-091100-
EASTERN PENNSYLVANIA

CITY           SKY/WX    TMP DP  RH WIND       PRES   REMARKS
SCRANTON       LGT SNOW  28  23  81 NE5       29.57F
MOUNT POCONO   CLOUDY    22  19  89 E7        29.53F WCI  13
ALLENTOWN      CLOUDY    29  24  82 NE8       29.62F
QUAKERTOWN*    CLOUDY    28  27  93 E5        29.61F
READING        CLOUDY    30  25  81 E8        29.61S
LANCASTER      CLOUDY    30  28  92 E9        29.59F
COATESVILLE    CLOUDY    30  30 100 E7        29.60S
POTTSTOWN      CLOUDY    29  26  89 E5        29.63S
BLUE BELL        N/A     30  27  86 E8        29.61F
DOYLESTOWN     CLOUDY    27  25  92 VRB3      29.61F
WILLOW GROVE   NOT AVBL
NORTH PHILA    CLOUDY    32  27  81 E9        29.65S
PHILADELPHIA   CLOUDY    32  27  81 NE10      29.64S
$$



USA.gov is the U.S. government's official web portal to all federal, state and local government web resources and services.